Dewpoint
-38 -37 -36 -36 -35 -35 -32 -28 -24 -27 -26 -18 -14 -12 -13 -13 -13 -12 -12 -11 -11 -9 -9 -10 -13 -12 -14 -15 -13 -11 -9 -9 -10 -11 -11 -14 -14 -12 -11 -9 -6 -8 -6 -9
-38 -37 -37 -36 -36 -36 -33 -24 -22 -25 -28 -16 -13 -13 -13 -13 -13 -13 -11 -10 -12 -11 -9 -9 -12 -13 -15 -13 -14 -8 -13 -12 -13 -13 -12 -16 -14 -13 -11 -11 -9 -11 -8 -9
-38 -38 -37 -36 -36 -36 -31 -25 -19 -21 -17 -13 -13 -12 -12 -12 -13 -12 -12 -11 -12 -10 -10 -13 -10 -12 -13 -13 -13 -12 -15 -13 -14 -12 -13 -12 -12 -13 -12 -10 -9 -10 -10 -10
-37 -37 -37 -37 -36 -35 -32 -23 -13 -16 -15 -14 -12 -12 -12 -12 -10 -12 -12 -11 -10 -9 -9 -10 -11 -11 -12 -13 -13 -17 -15 -13 -12 -12 -14 -16 -13 -13 -13 -12 -11 -10 -11 -12
-36 -36 -37 -37 -36 -34 -33 -22 -16 -15 -12 -14 -15 -14 -15 -12 -12 -13 -11 -9 -10 -10 -10 -10 -9 -9 -11 -10 -13 -17 -14 -12 -12 -11 -15 -16 -15 -15 -16 -14 -13 -12 -13 -13
-35 -35 -35 -36 -36 -36 -30 -22 -20 -24 -14 -14 -16 -14 -14 -14 -15 -16 -13 -11 -10 -12 -11 -11 -11 -11 -10 -11 -18 -16 -15 -10 -10 -10 -14 -14 -13 -12 -13 -14 -14 -13 -13 -13
-34 -34 -34 -34 -35 -35 -33 -26 -22 -26 -15 -16 -16 -15 -15 -15 -16 -13 -14 -14 -11 -14 -14 -12 -11 -10 -10 -17 -17 -18 -15 -11 -12 -12 -18 -15 -14 -14 -13 -14 -14 -14 -14 -14
-33 -33 -33 -33 -33 -33 -33 -28 -24 -26 -16 -16 -17 -17 -18 -20 -19 -17 -15 -15 -15 -17 -13 -16 -16 -15 -17 -17 -19 -18 -17 -15 -15 -16 -14 -15 -13 -14 -13 -13 -13 -15 -16 -17
-32 -32 -32 -32 -31 -30 -31 -30 -26 -24 -23 -18 -19 -17 -18 -16 -16 -17 -17 -16 -19 -17 -13 -15 -14 -12 -15 -15 -16 -18 -19 -18 -15 -15 -13 -13 -17 -17 -16 -14 -12 -17 -16 -17
-30 -30 -31 -31 -30 -29 -29 -29 -26 -24 -22 -19 -19 -18 -17 -16 -16 -18 -16 -14 -18 -16 -14 -13 -14 -14 -16 -15 -15 -14 -15 -17 -16 -14 -14 -16 -18 -15 -16 -12 -14 -16 -16 -16
-28 -28 -29 -29 -28 -27 -26 -26 -25 -23 -21 -19 -17 -16 -15 -14 -14 -16 -13 -17 -16 -14 -16 -15 -15 -15 -18 -18 -18 -18 -17 -19 -15 -15 -15 -13 -15 -18 -19 -18 -17 -17 -16 -16
-25 -25 -27 -27 -26 -24 -24 -26 -24 -22 -20 -18 -16 -14 -14 -14 -12 -12 -13 -15 -15 -12 -17 -18 -17 -14 -19 -21 -18 -19 -17 -19 -18 -18 -16 -16 -15 -16 -16 -16 -17 -17 -16 -16
-23 -22 -24 -24 -24 -23 -22 -24 -24 -20 -17 -15 -14 -13 -13 -14 -13 -11 -11 -13 -13 -14 -11 -13 -19 -17 -17 -18 -18 -21 -20 -17 -20 -20 -19 -16 -16 -15 -15 -16 -16 -16 -16 -16
-22 -20 -21 -22 -23 -21 -20 -21 -23 -24 -16 -12 -14 -13 -13 -14 -14 -11 -10 -13 -13 -11 -11 -12 -20 -15 -16 -19 -20 -19 -20 -18 -22 -20 -20 -18 -17 -16 -15 -15 -15 -16 -16 -16
-20 -19 -20 -20 -21 -18 -18 -17 -19 -24 -24 -16 -12 -12 -13 -15 -15 -11 -10 -12 -13 -11 -12 -16 -19 -15 -16 -19 -20 -21 -18 -21 -20 -18 -19 -18 -17 -17 -16 -16 -16 -16 -16 -16
-20 -19 -19 -20 -18 -16 -21 -20 -18 -23 -23 -18 -11 -12 -15 -15 -14 -11 -10 -10 -14 -13 -12 -14 -16 -14 -15 -21 -22 -23 -18 -20 -18 -18 -17 -17 -16 -16 -17 -17 -15 -16 -16 -16
-19 -19 -19 -16 -15 -20 -21 -20 -22 -24 -22 -20 -14 -12 -14 -17 -16 -12 -11 -10 -12 -13 -14 -13 -13 -14 -14 -23 -22 -24 -22 -21 -19 -18 -17 -17 -17 -16 -15 -15 -16 -16 -16 -16
-18 -16 -10 -11 -18 -19 -17 -22 -23 -24 -21 -22 -21 -20 -18 -19 -17 -17 -13 -11 -11 -13 -13 -14 -14 -15 -17 -18 -19 -23 -20 -20 -21 -18 -17 -17 -16 -17 -16 -16 -16 -16 -16 -15
-18 -13 -10 -12 -17 -19 -22 -22 -22 -23 -24 -24 -23 -18 -19 -18 -16 -15 -15 -13 -16 -14 -15 -14 -14 -19 -19 -20 -25 -23 -20 -19 -19 -18 -17 -16 -17 -18 -17 -16 -16 -16 -16 -15
-17 -11 -15 -19 -17 -21 -21 -21 -23 -21 -23 -22 -18 -18 -18 -18 -16 -16 -16 -14 -17 -18 -18 -16 -19 -18 -16 -17 -19 -20 -19 -18 -18 -18 -18 -18 -18 -18 -18 -16 -16 -15 -15 -15
-18 -20 -20 -18 -21 -21 -22 -25 -22 -20 -21 -18 -16 -15 -16 -15 -17 -17 -15 -20 -18 -19 -17 -18 -19 -18 -17 -19 -21 -20 -19 -18 -17 -16 -17 -18 -17 -17 -17 -17 -16 -14 -14 -14
-23 -24 -22 -22 -22 -23 -26 -19 -23 -20 -21 -16 -16 -16 -15 -13 -14 -14 -17 -19 -20 -17 -18 -19 -19 -19 -18 -22 -24 -23 -22 -20 -17 -17 -17 -17 -17 -17 -17 -16 -16 -14 -14 -14
-23 -23 -22 -26 -26 -25 -26 -26 -17 -19 -21 -17 -16 -18 -14 -14 -14 -17 -19 -20 -19 -20 -23 -19 -19 -19 -20 -22 -22 -22 -21 -18 -17 -16 -16 -17 -16 -16 -16 -16 -15 -14 -14 -14
-24 -24 -29 -18 -18 -18 -17 -17 -16 -25 -20 -18 -16 -15 -14 -14 -16 -18 -19 -22 -21 -22 -20 -20 -22 -20 -23 -21 -20 -20 -20 -18 -16 -16 -15 -15 -15 -15 -15 -14 -14 -15 -15 -15
-26 -25 -23 -17 -24 -25 -23 -25 -22 -19 -19 -17 -15 -15 -15 -16 -19 -17 -22 -22 -21 -19 -21 -21 -24 -21 -21 -20 -19 -19 -19 -18 -16 -15 -15 -15 -15 -15 -15 -15 -15 -15 -16 -16
-27 -26 -23 -20 -20 -21 -21 -20 -19 -20 -17 -15 -15 -17 -19 -19 -18 -20 -20 -24 -23 -21 -22 -24 -21 -21 -20 -19 -18 -19 -19 -17 -16 -16 -16 -15 -16 -16 -16 -16 -16 -16 -17 -17
-28 -28 -27 -25 -25 -25 -24 -20 -20 -18 -16 -15 -16 -18 -19 -20 -20 -19 -20 -21 -20 -29 -23 -21 -21 -20 -19 -18 -18 -18 -19 -18 -17 -17 -16 -16 -16 -16 -17 -17 -18 -18 -18 -18
Wind_Speed
18 19 19 19 19 19 14 3 4 21 12 10 5 2 4 7 3 3 3 1 2 2 4 3 3 4 3 13 12 8 3 1 3 2 2 3 4 9 2 2 4 3 2 2
17 18 19 19 19 19 14 4 4 15 11 4 3 4 3 3 3 4 3 3 3 3 3 3 2 4 8 17 10 7 6 3 4 3 2 4 5 14 11 3 3 3 1 3
17 18 19 19 18 18 11 3 3 10 16 8 4 3 4 5 8 3 5 3 3 5 3 2 4 6 5 18 12 12 5 5 3 3 2 3 5 14 16 2 2 3 6 10
17 18 19 19 17 15 8 5 4 3 3 6 3 1 4 4 5 5 7 1 5 9 4 4 2 3 8 5 14 8 3 3 3 4 6 8 13 14 15 16 8 3 6 9
16 17 18 18 17 12 11 4 4 7 4 3 3 7 4 3 4 2 4 3 11 5 3 4 10 8 2 2 7 5 5 2 5 4 6 7 11 16 12 12 9 8 11 9
16 17 18 18 18 14 7 6 8 4 3 2 3 2 4 4 8 3 6 7 5 6 2 11 22 17 10 2 3 4 4 2 2 2 4 8 2 10 10 4 9 3 4 2
14 16 18 19 19 18 13 8 5 3 0 2 1 2 3 5 6 3 9 9 4 5 22 10 2 5 7 6 5 7 3 1 2 2 4 4 3 3 2 7 6 7 5 6
12 15 17 19 19 17 14 10 3 3 2 1 1 3 5 11 12 3 4 8 11 20 7 3 4 4 2 4 3 5 5 2 3 2 2 2 1 4 4 4 2 5 6 6
9 12 14 16 17 16 14 11 7 4 10 2 2 1 3 1 3 8 3 18 11 18 3 3 3 3 2 5 8 4 5 4 3 1 3 1 4 3 6 2 2 4 4 7
8 10 12 14 14 14 13 10 6 4 6 4 3 4 1 3 3 2 5 13 12 17 4 3 3 2 2 3 4 5 5 4 3 3 2 3 3 8 1 1 2 4 4 5
6 8 10 12 13 13 12 10 8 3 5 8 5 5 5 2 2 2 7 3 7 6 4 2 1 1 2 2 2 2 1 2 1 1 2 1 4 2 4 2 3 3 4 4
6 7 9 10 11 12 11 7 8 5 4 6 6 3 3 5 6 5 4 2 1 0 3 1 1 0 1 2 2 2 2 4 3 5 3 1 4 1 1 4 6 6 7 7
6 7 8 9 10 11 10 4 7 3 6 6 4 2 1 3 4 4 3 1 2 1 1 3 2 1 2 1 3 0 2 3 2 4 3 6 4 8 7 6 7 8 10 10
6 6 8 9 10 11 11 2 6 5 4 3 4 4 2 3 3 1 3 3 1 2 2 3 2 2 4 2 2 3 2 5 3 5 8 8 5 7 9 11 12 12 11 10
6 7 8 9 10 11 10 1 2 8 1 2 5 5 3 2 2 1 2 2 2 2 2 2 2 3 3 1 1 3 8 5 3 4 5 4 5 4 6 9 10 9 11 9
6 7 8 9 11 11 5 1 1 8 2 3 1 3 3 2 3 3 3 2 1 2 2 2 2 3 1 2 2 5 9 9 13 4 5 9 10 9 8 5 7 8 10 10
5 6 8 9 9 3 3 2 6 6 2 2 2 2 3 3 4 4 4 3 2 2 2 3 3 3 4 2 2 5 5 9 10 13 13 11 7 4 8 9 9 10 10 9
6 7 5 8 3 4 2 5 4 4 2 1 3 2 2 2 2 2 2 3 2 1 1 1 1 2 2 2 12 10 7 11 11 10 13 13 13 12 10 11 10 10 11 10
6 4 8 6 3 3 5 5 3 3 1 1 2 3 3 4 3 2 2 1 1 2 0 1 1 2 3 8 7 4 8 9 12 11 12 13 15 12 10 11 10 12 12 12
7 8 2 2 2 7 5 2 1 2 1 1 3 1 1 5 4 2 5 3 1 0 2 6 2 3 13 10 4 7 12 15 15 16 17 16 17 14 12 12 11 12 13 14
3 2 2 4 6 2 2 2 1 3 1 1 2 1 1 3 1 1 3 2 1 2 2 2 2 3 2 5 9 12 15 17 17 17 18 18 19 20 18 18 16 15 15 16
4 3 4 3 2 2 0 1 3 1 3 2 1 0 1 0 0 0 2 2 3 3 7 3 3 4 1 6 9 13 17 18 17 16 17 17 18 18 19 20 19 17 17 17
2 2 2 2 1 4 3 4 4 3 4 5 2 1 1 2 0 3 3 3 3 3 3 3 4 6 4 4 9 14 16 16 16 16 15 15 16 15 16 16 16 16 16 16
2 2 3 2 3 4 5 4 3 3 3 3 1 2 1 2 2 1 3 2 2 3 2 6 3 11 4 5 9 14 17 17 16 15 14 13 12 12 12 12 13 14 15 15
3 3 3 5 4 4 4 6 3 4 4 3 1 2 2 1 2 1 2 4 4 6 5 3 7 7 6 6 9 13 16 16 15 14 14 13 12 12 11 10 11 13 14 16
3 5 1 4 2 3 4 6 7 5 5 3 2 3 3 3 3 1 6 5 6 4 5 6 8 8 7 7 10 13 15 14 13 12 11 10 10 10 11 12 14 16 15 14
4 5 8 9 8 6 3 3 3 7 5 2 4 2 5 3 1 3 4 5 4 4 6 8 9 9 8 7 10 13 14 13 12 11 11 12 13 14 15 15 13 14 14 15
Wind_Direction
4 7 7 7 7 5 6 37 53 7 19 46 41 56 322 324 314 331 320 300 273 295 307 296 302 328 242 349 333 322 283 52 314 247 265 146 132 353 279 312 4 359 50 80
4 8 8 7 7 7 6 64 63 28 37 68 9 328 320 300 322 325 337 329 24 24 295 310 320 325 324 356 346 343 336 10 338 345 1 45 35 349 336 218 273 41 76 147
5 8 9 9 8 9 15 64 47 33 55 75 95 6 354 321 326 293 334 287 31 327 294 258 302 317 323 335 343 9 44 19 20 120 200 289 359 11 8 327 22 104 40 99
8 11 11 9 12 13 23 57 78 55 1 29 76 91 341 331 347 347 335 334 20 336 295 301 250 311 326 331 3 11 68 107 81 132 137 66 48 26 20 34 21 51 105 73
8 12 14 12 17 20 42 75 128 100 86 27 42 356 350 306 306 277 316 0 328 314 257 217 303 326 314 356 332 15 350 206 183 194 154 66 47 27 28 23 9 52 70 58
8 10 14 18 22 30 60 90 115 127 19 49 76 258 278 295 342 287 273 322 304 320 293 315 296 285 255 44 9 333 358 329 214 269 289 273 40 0 31 67 31 358 59 46
7 10 13 19 23 34 45 79 108 117 151 95 97 324 312 295 329 248 309 337 311 297 313 317 87 72 103 116 62 25 332 291 36 288 360 31 245 15 43 82 44 35 43 25
5 7 11 18 22 32 35 53 81 112 98 167 140 1 344 334 341 334 271 331 323 329 335 41 32 1 36 359 15 20 42 95 70 86 61 258 233 23 0 0 27 12 354 3
360 4 8 15 17 25 29 42 64 103 127 283 101 162 349 262 308 336 286 348 359 5 38 57 52 28 277 326 340 52 20 85 99 55 92 17 244 321 332 275 186 37 355 349
351 357 4 10 12 19 23 35 50 93 105 129 111 81 132 354 330 211 305 342 354 12 20 53 45 330 210 18 1 330 342 359 73 5 93 288 250 319 9 327 16 355 7 354
338 349 355 4 5 12 16 27 38 102 112 144 127 95 71 49 17 113 326 22 9 19 53 67 281 63 270 54 245 192 176 82 330 334 46 318 350 354 136 251 332 331 345 341
321 336 344 355 358 7 10 23 34 105 123 141 140 116 65 34 27 11 30 115 272 171 85 10 111 332 70 164 330 355 17 175 211 166 225 235 302 279 232 329 318 323 321 328
312 320 329 341 351 0 7 28 32 113 130 140 147 149 128 19 14 39 32 29 346 180 271 168 170 99 133 79 257 284 291 170 196 32 280 242 265 242 258 295 327 310 314 319
308 305 318 328 341 350 358 25 39 46 133 137 172 182 191 345 356 349 6 355 316 192 194 212 145 155 186 213 205 175 184 143 193 263 277 279 249 244 257 265 287 307 299 306
300 304 312 322 331 339 345 218 26 22 352 163 152 184 223 305 327 241 310 334 345 191 184 140 231 149 132 67 71 274 189 196 153 233 213 216 263 260 276 267 278 282 293 293
296 298 307 316 323 332 343 313 286 359 11 171 129 174 189 246 244 247 255 296 291 213 213 171 181 159 157 105 209 246 228 270 251 262 257 275 283 281 268 263 286 280 282 284
306 304 303 314 323 352 358 346 321 337 344 185 117 211 223 277 238 235 246 254 256 244 209 184 184 175 202 108 201 225 289 302 280 253 255 276 265 259 280 289 288 280 283 278
312 301 306 324 326 322 306 325 318 335 299 229 109 266 203 339 264 250 256 226 226 242 221 197 175 168 195 258 247 268 302 316 298 266 252 261 271 273 278 277 282 283 286 285
325 332 312 302 282 304 307 309 293 311 321 233 106 124 271 348 0 326 307 311 9 291 126 56 295 321 237 229 258 296 329 322 305 285 265 262 267 268 253 261 274 286 299 297
320 315 285 266 283 308 305 286 278 254 293 55 99 136 326 340 351 35 352 23 61 17 272 317 119 259 266 292 334 331 314 308 302 291 282 273 268 259 259 260 270 281 295 303
303 276 256 276 306 292 273 268 353 331 17 31 119 187 297 355 28 231 24 193 344 50 272 117 296 276 251 19 345 335 324 313 304 294 287 281 274 272 270 271 275 280 286 294
300 271 278 280 283 261 176 293 300 118 236 190 176 0 283 285 268 156 11 117 34 242 333 62 280 251 207 340 343 334 328 322 311 306 300 293 284 280 277 274 276 282 287 292
280 244 237 229 260 25 93 322 308 321 194 186 204 268 213 157 122 79 69 70 228 316 43 233 231 193 269 319 323 330 336 329 325 323 310 300 294 290 284 282 281 284 284 291
246 229 300 152 293 242 188 192 197 223 217 216 234 153 214 168 78 115 80 233 43 21 351 238 244 203 265 302 322 332 337 335 330 326 325 320 313 304 295 286 283 282 290 295
241 211 244 218 263 241 233 230 235 238 225 219 139 116 178 82 70 93 79 20 270 208 232 231 208 236 255 298 326 334 336 336 333 329 324 321 316 310 304 294 292 297 297 298
232 231 252 224 256 244 236 239 232 224 202 180 155 109 52 262 152 109 216 126 231 249 219 257 252 247 258 301 328 333 334 335 334 334 332 332 328 320 310 304 302 300 299 297
234 238 235 234 273 267 253 236 225 193 179 175 140 139 226 113 16 256 194 209 220 238 285 297 278 257 269 300 324 331 332 333 332 325 315 311 308 306 303 303 304 304 302 300
Height
1544 1540 1535 1531 1527 1523 1519 1518 1520 1521 1516 1518 1529 1536 1535 1532 1530 1529 1528 1527 1527 1526 1524 1523 1519 1517 1514 1510 1507 1504 1498 1500 1502 1502 1498 1499 1503 1503 1495 1481 1464 1471 1463 1500
1545 1540 1536 1531 1527 1523 1519 1520 1523 1523 1519 1534 1539 1537 1535 1532 1530 1529 1528 1528 1527 1527 1526 1526 1519 1516 1512 1511 1507 1502 1499 1507 1519 1501 1503 1501 1510 1502 1494 1489 1485 1495 1482 1501
1546 1541 1537 1532 1528 1524 1521 1522 1526 1527 1527 1536 1539 1542 1538 1535 1530 1529 1529 1528 1527 1527 1525 1522 1522 1517 1513 1511 1509 1503 1501 1508 1505 1516 1520 1516 1514 1507 1498 1489 1482 1494 1498 1501
1547 1542 1537 1533 1528 1524 1523 1525 1533 1534 1542 1539 1541 1543 1541 1538 1535 1531 1529 1527 1528 1529 1528 1523 1522 1518 1516 1512 1510 1507 1508 1522 1516 1516 1513 1511 1511 1510 1506 1501 1498 1492 1507 1509
1548 1544 1539 1535 1530 1526 1525 1527 1530 1536 1540 1541 1542 1543 1543 1541 1536 1536 1532 1531 1529 1527 1529 1527 1523 1521 1519 1518 1513 1512 1511 1520 1512 1512 1510 1508 1512 1512 1511 1511 1512 1510 1512 1515
1549 1545 1541 1536 1532 1529 1527 1528 1530 1531 1542 1543 1545 1548 1543 1539 1538 1534 1533 1532 1529 1525 1524 1523 1520 1519 1519 1520 1520 1518 1515 1512 1510 1511 1510 1506 1516 1522 1520 1523 1522 1519 1518 1524
1550 1546 1542 1538 1534 1532 1530 1529 1530 1531 1545 1543 1544 1544 1543 1539 1538 1538 1532 1530 1528 1525 1522 1518 1517 1517 1518 1520 1520 1519 1519 1515 1516 1518 1520 1539 1525 1523 1521 1522 1524 1524 1521 1522
1550 1547 1544 1540 1537 1534 1532 1531 1531 1531 1544 1543 1544 1543 1542 1538 1535 1535 1533 1531 1529 1523 1519 1522 1525 1523 1521 1522 1521 1520 1519 1522 1529 1535 1535 1530 1522 1525 1526 1525 1522 1521 1520 1521
1550 1548 1546 1543 1540 1537 1534 1532 1532 1532 1535 1544 1542 1542 1543 1543 1539 1534 1531 1529 1526 1522 1520 1525 1540 1538 1542 1531 1524 1520 1519 1522 1524 1526 1528 1523 1531 1525 1525 1525 1520 1527 1526 1523
1550 1548 1546 1544 1542 1539 1536 1534 1533 1533 1535 1541 1541 1541 1543 1541 1539 1540 1534 1531 1527 1525 1529 1534 1544 1545 1542 1545 1545 1539 1533 1534 1542 1531 1536 1531 1527 1525 1524 1522 1527 1525 1524 1524
1549 1548 1546 1544 1543 1540 1538 1536 1534 1534 1535 1540 1540 1541 1541 1540 1539 1542 1534 1534 1533 1532 1541 1543 1546 1545 1552 1550 1549 1552 1551 1555 1543 1530 1533 1533 1527 1526 1531 1527 1524 1524 1524 1525
1549 1547 1546 1544 1543 1540 1538 1536 1535 1534 1536 1538 1540 1540 1540 1540 1539 1537 1536 1538 1537 1538 1543 1546 1546 1542 1551 1559 1552 1546 1546 1546 1549 1542 1532 1527 1526 1526 1525 1525 1524 1523 1523 1522
1548 1547 1546 1544 1543 1541 1538 1536 1535 1535 1536 1539 1540 1540 1540 1539 1538 1537 1538 1537 1536 1537 1538 1539 1543 1548 1544 1553 1547 1548 1539 1538 1544 1539 1529 1525 1525 1524 1524 1523 1523 1522 1520 1519
1546 1546 1545 1543 1542 1540 1538 1537 1536 1535 1535 1537 1540 1539 1539 1538 1537 1537 1536 1535 1534 1535 1536 1536 1539 1540 1539 1546 1543 1544 1538 1537 1539 1535 1525 1523 1522 1522 1522 1522 1521 1520 1519 1517
1545 1544 1543 1542 1541 1539 1537 1536 1536 1535 1537 1535 1537 1538 1538 1537 1536 1536 1535 1534 1533 1533 1534 1535 1539 1536 1538 1540 1541 1542 1530 1529 1536 1532 1521 1521 1520 1519 1519 1519 1518 1517 1516 1516
1544 1543 1542 1541 1540 1537 1536 1536 1536 1535 1534 1534 1536 1536 1536 1536 1535 1535 1534 1534 1533 1533 1532 1532 1533 1533 1535 1544 1548 1522 1521 1521 1520 1519 1518 1518 1517 1517 1516 1516 1516 1515 1514 1513
1543 1542 1541 1540 1539 1537 1537 1538 1536 1534 1533 1533 1535 1534 1534 1534 1533 1533 1533 1532 1532 1532 1531 1530 1530 1531 1533 1537 1542 1516 1517 1516 1515 1515 1516 1515 1513 1513 1513 1512 1512 1511 1511 1510
1541 1541 1540 1539 1538 1536 1536 1535 1534 1533 1532 1532 1534 1534 1532 1532 1531 1531 1530 1530 1530 1530 1530 1530 1529 1531 1531 1534 1514 1513 1514 1512 1511 1511 1511 1511 1511 1510 1509 1508 1508 1507 1507 1507
1540 1539 1539 1538 1537 1536 1535 1533 1533 1532 1534 1530 1531 1536 1537 1531 1530 1530 1529 1529 1530 1530 1529 1530 1531 1531 1531 1512 1510 1511 1511 1510 1509 1508 1507 1507 1506 1505 1505 1505 1504 1503 1502 1502
1538 1538 1538 1537 1537 1535 1535 1533 1532 1531 1531 1530 1530 1532 1533 1533 1530 1529 1530 1529 1532 1536 1532 1530 1530 1525 1510 1510 1509 1509 1508 1506 1505 1503 1502 1501 1500 1500 1500 1500 1500 1499 1498 1497
1538 1537 1536 1536 1535 1534 1533 1532 1531 1531 1531 1530 1530 1531 1531 1532 1533 1532 1533 1534 1533 1542 1533 1532 1532 1525 1508 1508 1508 1506 1504 1502 1499 1498 1496 1496 1495 1495 1495 1494 1494 1493 1493 1491
1537 1536 1535 1534 1534 1533 1533 1535 1533 1532 1532 1529 1530 1531 1530 1530 1531 1531 1533 1535 1536 1539 1532 1535 1535 1509 1505 1504 1503 1502 1500 1497 1494 1492 1490 1489 1488 1488 1488 1488 1488 1488 1487 1486
1534 1534 1534 1534 1534 1535 1534 1540 1534 1533 1527 1527 1528 1529 1530 1530 1531 1532 1533 1539 1540 1535 1542 1532 1512 1500 1501 1500 1500 1498 1496 1492 1489 1487 1484 1483 1482 1482 1481 1481 1481 1481 1481 1480
1533 1532 1534 1534 1535 1531 1527 1528 1525 1526 1525 1525 1526 1527 1530 1529 1530 1532 1536 1537 1537 1545 1545 1523 1499 1495 1496 1497 1496 1493 1490 1488 1485 1482 1480 1479 1477 1477 1476 1476 1476 1476 1475 1474
1531 1531 1529 1529 1523 1523 1523 1523 1523 1523 1524 1525 1525 1527 1529 1529 1532 1532 1536 1539 1538 1527 1515 1500 1491 1492 1492 1492 1491 1489 1487 1484 1481 1479 1477 1475 1474 1473 1472 1472 1471 1471 1470 1469
1529 1526 1523 1522 1523 1521 1520 1520 1521 1522 1522 1523 1525 1526 1530 1530 1530 1534 1531 1534 1525 1502 1492 1488 1488 1488 1488 1488 1487 1485 1483 1480 1478 1476 1474 1473 1472 1471 1470 1469 1467 1466 1464 1463
1524 1520 1518 1519 1519 1518 1518 1518 1519 1520 1521 1521 1523 1527 1520 1528 1532 1528 1518 1511 1490 1485 1485 1485 1484 1485 1485 1484 1483 1482 1479 1477 1475 1473 1472 1470 1469 1468 1466 1464 1463 1461 1460 1458